Regional Weather Roundup
Issued by NWS Little Rock, AR

Home | Current Version | Previous Version | Text Only | Print | Product List | Glossary Off
Versions: 1 2 3 4 5 6 7 8 9 10 11 12 13 14 15 16 17 18 19 20 21 22 23 24 25 26 27 28 29 30 31 32 33 34 35 36 37 38 39 40 41 42 43 44 45 46 47 48 49 50

000
ASUS44 KLZK 010014
RWRLZK

WEATHER ROUNDUP FOR ARKANSAS
NATIONAL WEATHER SERVICE LITTLE ROCK AR
700 PM CDT FRI SEP 30 2016

NOTE: "FAIR" INDICATES FEW OR NO CLOUDS BELOW 12,000 FEET WITH NO
SIGNIFICANT WEATHER AND/OR OBSTRUCTIONS TO VISIBILITY.

ARZ001-003-010-029-010100-
NORTHWEST ARKANSAS

CITY           SKY/WX    TMP DP  RH WIND       PRES   REMARKS
FAYETTEVILLE   CLEAR     67  53  61 NE3       30.11S
6HR MIN TEMP:  67; 6HR MAX TEMP:  75;

FORT SMITH     CLEAR     75  47  36 NE7       30.06S
6HR MIN TEMP:  75; 6HR MAX TEMP:  83;

HARRISON       CLOUDY    66  54  65 NW3       30.11F
6HR MIN TEMP:  66; 6HR MAX TEMP:  75;

BENTONVILLE    CLEAR     66  50  55 NE5       30.13S
6HR MIN TEMP:  66; 6HR MAX TEMP:  73;

ROGERS         CLEAR     66  54  65 N5        30.13S
6HR MIN TEMP:  66; 6HR MAX TEMP:  73;

SILOAM SPGS    CLEAR     68  46  45 NE3       30.12S
6HR MIN TEMP:  68; 6HR MAX TEMP:  75;

HIGHFILL       CLEAR     67  54  63 N6        30.11S
6HR MIN TEMP:  67; 6HR MAX TEMP:  77;

SPRINGDALE     CLEAR     68  54  60 N6        30.13S
$$

ARZ004-005-016-010100-
NORTH CENTRAL ARKANSAS

CITY           SKY/WX    TMP DP  RH WIND       PRES   REMARKS
BATESVILLE     CLOUDY    70  55  60 NE3       30.08S
6HR MIN TEMP:  70; 6HR MAX TEMP:  77;

FLIPPIN        CLOUDY    70  54  56 CALM      30.07S
6HR MIN TEMP:  70; 6HR MAX TEMP:  75;

MTN HOME       CLOUDY    66  57  72 CALM      30.09S
6HR MIN TEMP:  66; 6HR MAX TEMP:  76;

$$

ARZ040-041-010100-
WEST CENTRAL ARKANSAS

CITY           SKY/WX    TMP DP  RH WIND       PRES   REMARKS
MENA           CLEAR     72  54  53 CALM      30.09F
MOUNT IDA      CLEAR     68  56  65 CALM      30.06S
6HR MIN TEMP:  68; 6HR MAX TEMP:  81;

$$

ARZ009-017-025-026-028-010100-
NORTHEAST ARKANSAS

CITY           SKY/WX    TMP DP  RH WIND       PRES   REMARKS
CORNING          N/A     66  59  77 NW7       30.07R
JONESBORO      CLOUDY    68  55  63 NW5       30.05S
6HR MIN TEMP:  68; 6HR MAX TEMP:  77;

NEWPORT        CLOUDY    69  57  65 NW8       30.07S
6HR MIN TEMP:  69; 6HR MAX TEMP:  76;

WALNUT RIDGE   CLOUDY    68  55  64 N6        30.06S
6HR MIN TEMP:  68; 6HR MAX TEMP:  73;

BLYTHEVILLE    CLOUDY    69  57  65 N7        30.04S
6HR MIN TEMP:  69; 6HR MAX TEMP:  77;

$$

ARZ022-023-033-042-044-010100-
CENTRAL ARKANSAS

CITY           SKY/WX    TMP DP  RH WIND       PRES   REMARKS
LITTLE ROCK    MOCLDY    71  55  56 N7        30.06S
6HR MIN TEMP:  71; 6HR MAX TEMP:  79;

N LITTLE ROCK    N/A     71  56  58 CALM      30.04S
6HR MIN TEMP:  71; 6HR MAX TEMP:  78;

JACKSONVILLE   MOCLDY    74  58  57 NW3       30.05S
6HR MIN TEMP:  74; 6HR MAX TEMP:  81;

SEARCY         CLOUDY    72  57  59 N3        30.08R
6HR MIN TEMP:  72; 6HR MAX TEMP:  79;

HOT SPRINGS    CLEAR     75  50  41 W3        30.06S
6HR MIN TEMP:  75; 6HR MAX TEMP:  81;

RUSSELLVILLE   PTCLDY    72  55  55 N3        30.06S
6HR MIN TEMP:  72; 6HR MAX TEMP:  80;

$$

ARZ036-010100-
EAST ARKANSAS

CITY           SKY/WX    TMP DP  RH WIND       PRES   REMARKS
WEST MEMPHIS   CLEAR     69  52  54 CALM      30.04R
6HR MIN TEMP:  69; 6HR MAX TEMP:  76;

$$

ARZ050-053-066-070-073-010100-
SOUTHWEST ARKANSAS

CITY           SKY/WX    TMP DP  RH WIND       PRES   REMARKS
ARKADELPHIA    FAIR      69  62  78 W5        30.06S
6HR MIN TEMP:  69; 6HR MAX TEMP:  80;

TEXARKANA      CLEAR     74  52  46 CALM      30.06F
6HR MIN TEMP:  74; 6HR MAX TEMP:  82;

EL DORADO      CLEAR     69  59  70 CALM      30.07S
6HR MIN TEMP:  69; 6HR MAX TEMP:  81;

DE QUEEN       CLEAR     73  53  49 CALM      30.05S
6HR MIN TEMP:  73; 6HR MAX TEMP:  82;

$$

ARZ056-057-069-010100-
SOUTHEAST ARKANSAS

CITY           SKY/WX    TMP DP  RH WIND       PRES   REMARKS
PINE BLUFF     PTCLDY    74  55  51 W3        30.06S
6HR MIN TEMP:  74; 6HR MAX TEMP:  79;

STUTTGART      CLEAR     72  54  53 NE3       30.06F
6HR MIN TEMP:  72; 6HR MAX TEMP:  79;

MONTICELLO     CLEAR     72  58  61 CALM      30.06S
6HR MIN TEMP:  71; 6HR MAX TEMP:  80;


$$





USA.gov is the U.S. government's official web portal to all federal, state and local government web resources and services.